Preview of NWS' New Version of Forecast
This preview is not operational and should not be used for support decisions.
Latest weather observations around

Hancock, Houghton County Memorial Airport (KCMX)

Using English Units (Switch to International System of Units)
Date/ Time (EDT) Wind (mph) Vis. (mi) Weather Sky Cond. Temp (°F) Rel. Humidity Wind Chill (°F) Heat Index (°F) Pressure Precip. (in)
Air Dwpt 6 hour Altimeter (inHg) Sea level (inHg) 1 hr 3 hr 6 hr
Max Min
Sep 16 22:36 SSE 3 8 Partly Cloudy SCT001 60 57     90%     30.07        
Sep 16 21:53 E 8 10 Clear CLR 60 58     93%     30.08 30.08      
Sep 16 21:06 E 9 8 Partly Cloudy SCT001 60 58     93%     30.07        
Sep 16 20:53 E 9 9 Clear CLR 61 58     90%     30.08 30.08      
Sep 16 20:19 E 8 9 Partly Cloudy SCT001 61 58     90%     30.07        
Sep 16 19:53 E 7 5 Fog/Mist BKN001 61 58     90%     30.07 30.08      
Sep 16 19:45 E 7 4 Fog/Mist BKN002 61 58     90%     30.07        
Sep 16 19:21 E 7 10 Mostly Clear FEW002 62 59     90%     30.07        
Sep 16 18:53 E 8 10 Clear CLR 64 59     84%     30.07 30.08      
Sep 16 17:53 E 9 10 Clear CLR 66 59     78%     30.08 30.09      
Sep 16 16:53 ESE 9 10 Clear CLR 70 61     73%     30.08 30.08      
Sep 16 15:53 ESE 7 10 Clear CLR 74 63     69%   74 30.09 30.09      
Sep 16 14:53 SE 5 10 Clear CLR 73 62     68%   73 30.09 30.09      
Sep 16 13:53 ESE 5 10 Clear CLR 71 61     70%   71 30.11 30.1      
Sep 16 12:53 SE 6 10 Mostly Clear FEW003 64 60     87%     30.11 30.11      
Sep 16 12:45 E 5 10 Mostly Clear FEW003 63 60     90%     30.11        
Sep 16 12:25 SE 6 10 Mostly Cloudy BKN002 62 59     90%     30.11        
Sep 16 12:04 3 3 Fog/Mist OVC001 61 58     90%     30.11        
Sep 16 11:59 SE 3 1 Fog/Mist VV001 60 58     93%     30.11        
Sep 16 11:53 ESE 3 0.25 Fog VV001 60 58     93%     30.11 30.12      
Sep 16 10:53 SE 5 0.25 Fog VV001 59 58     96%     30.11 30.11      
Sep 16 09:53 ESE 3 0.25 Fog VV001 58 57     97%     30.11 30.11      
Sep 16 08:53 E 3 0.25 Fog VV001 57 56     96%     30.11 30.11      
Sep 16 08:01 E 6 0.25 Fog VV001 56 54     93%     30.09        
Sep 16 07:53 E 5 0.25 Fog VV002 54 52     93%     30.09 30.1      
Sep 16 07:50 E 3 0.25 Fog VV002 54 52     94%     30.09        
Sep 16 06:53 Calm 0.25 Fog VV001 52 50     93%     30.07 30.08      
Sep 16 06:33 Calm 0.25 Fog VV001 52 50     93%     30.07        
Sep 16 06:24 Calm 0.25 Fog VV002 51 49     92%     30.07        
Sep 16 05:53 Calm 0.25 Fog VV001 50 49     96%     30.07 30.07      
Sep 16 05:29 Calm 0.25 Fog VV002 51 49     92%     30.06        
Sep 16 05:14 Calm 0.75 Fog/Mist VV002 52 50     93%     30.06        
Sep 16 05:06 Calm 1 Fog/Mist VV002 52 50     93%     30.06        
Sep 16 04:56 Calm 0.75 Fog/Mist VV002 53 51     93%     30.06        
Sep 16 04:53 Calm 1 Fog/Mist VV001 53 51     93%     30.06 30.06      
Sep 16 04:46 NNW 3 1 Fog/Mist VV001 54 51     90%     30.05        
Sep 16 03:53 Calm 0.25 Fog VV001 54 52     93%     30.05 30.05      
Sep 16 03:45 Calm 0.25 Fog VV001 54 51     90%     30.05        
Sep 16 03:34 Calm 0.75 Fog/Mist OVC001 53 51     93%     30.05        
Sep 16 03:13 Calm 0.5 Fog OVC002 53 51     93%     30.04        
Sep 16 02:53 Calm 0.25 Fog VV003 51 50     96%     30.04 30.05      
Sep 16 02:32 Calm 0.25 Fog VV002 54 52     93%     30.05        
Sep 16 02:27 Calm 1.25 Fog/Mist FEW002 55 54     96%     30.05        
Sep 16 02:25 Calm 3 Fog/Mist CLR 56 55     97%     30.05        
Sep 16 02:14 WSW 3 1.5 Fog/Mist CLR 55 52     89%     30.04        
Sep 16 01:53 NW 3 7 Clear CLR 55 53     93%     30.04 30.03      
Sep 16 01:36 NW 7 10 Partly Cloudy SCT006 54 52     93%     30.03        
Sep 16 01:13 WNW 3 10 Mostly Cloudy BKN006 54 51     90%     30.04        
Sep 16 01:02 WSW 3 4 Fog/Mist FEW008 52 50     93%     30.04        
Sep 16 00:59 WSW 3 1.75 Fog/Mist FEW008 54 51     90%     30.04        
Sep 16 00:53 Calm 2 Fog/Mist CLR 53 50     89%     30.04 30.04      
Sep 16 00:05 Calm 4 Fog/Mist CLR 52 50     93%     30.03        
Sep 15 23:53 Calm 2 Fog/Mist CLR 53 51     93%     30.03 30.03      
Sep 15 23:35 WNW 5 4 Fog/Mist CLR 55 53     93%     30.03        
Sep 15 23:27 NW 3 1.75 Fog/Mist CLR 55 53     93%     30.03        
Sep 15 23:13 Calm 9 Partly Cloudy SCT019 57 54     89%     30.03        
Sep 15 22:53 Calm 10 Mostly Cloudy SCT019 BKN025 57 54     89%     30.02 30.02      
Sep 15 21:53 ENE 3 10 Cloudy BKN018 OVC029 59 56     90%     30.02 30.02      
Sep 15 20:53 ENE 3 10 Cloudy FEW002 SCT018 OVC027 59 56     90%     30.01 30.01      
Sep 15 20:36 E 5 10 Cloudy SCT002 BKN019 OVC026 59 57     93%     30.01        
Sep 15 20:24 E 3 10 Cloudy BKN002 OVC019 60 57     90%     30        
Sep 15 20:15 E 6 10 Cloudy SCT002 BKN019 OVC026 60 57     90%     30        
Sep 15 19:53 E 6 10 Cloudy BKN002 OVC021 61 58     90%     30 30.01     0
Sep 15 19:50 E 5 10 Cloudy BKN002 OVC021 61 57     88%     30        
Sep 15 19:32 ENE 7 10 Cloudy FEW003 OVC022 61 58     90%     30        
Sep 15 18:53 E 6 10 Cloudy OVC022 62 58     86%     30 30.01      
Sep 15 17:53 E 7 10 Cloudy OVC020 62 58     86%     30 30      
Sep 15 16:53 ENE 6 10 Cloudy OVC021 62 58     86%     29.99 30   0  
Sep 15 15:53 E 6 10 Cloudy OVC021 61 57     87%     30 30.01 0    
Sep 15 15:18 ESE 8 10 Light Rain FEW004 BKN023 OVC032 61 58     90%     30.01   0    
Sep 15 15:06 SE 6 10 Light Rain FEW027 BKN032 OVC041 62 59     90%     30.01   0    
Sep 15 14:53 ESE 5 2 Heavy Rain and Fog/Mist FEW025 OVC034 62 58     86%     30.01 30.02 0    
Sep 15 13:53 SE 9 10 Cloudy BKN035 OVC045 66 57     73%     30.02 30.02      
Sep 15 12:53 SSE 8 10 Cloudy OVC036 64 56     75%     30.02 30.02      
Sep 15 11:53 SSE 8 10 Cloudy FEW013 OVC037 62 55     78%     30.03 30.03      
Sep 15 10:53 SE 8 10 Cloudy OVC100 60 53     78%     30.03 30.04      
Sep 15 09:53 ESE 8 10 Cloudy OVC110 57 52     83%     30.03 30.04      
Sep 15 08:53 E 7 10 Mostly Cloudy BKN120 54 50     86%     30.03 30.04      
Sep 15 07:53 E 7 10 Mostly Cloudy BKN120 53 49     86%     30.03 30.04      
Sep 15 06:53 E 7 10 Mostly Cloudy BKN120 52 48     86%     30.03 30.04      
Sep 15 05:53 E 7 10 Mostly Clear FEW070 51 48     89%     30.03 30.04      
Sep 15 04:53 E 7 10 Mostly Cloudy BKN055 52 48     86%     30.04 30.04      
Sep 15 03:53 E 8 10 Clear CLR 52 48     86%     30.05 30.06      
Sep 15 02:53 E 8 10 Mostly Clear FEW060 52 49     89%     30.07 30.07      
Sep 15 01:53 ESE 9 10 Partly Cloudy FEW080 SCT095 53 50     89%     30.07 30.08     0
Sep 15 00:53 E 9 10 Cloudy OVC100 54 50     86%     30.07 30.08 0    
Sep 14 23:53 ESE 9 7 Light Rain FEW048 BKN075 OVC110 53 48     83%     30.07 30.08 0    
Sep 14 22:53 E 5 10 Cloudy OVC090 54 43     66%     30.08 30.09 0 0  
Sep 14 21:53 E 5 10 Mostly Cloudy BKN110 53 43     69%     30.07 30.08      
Sep 14 20:53 N 5 10 Mostly Cloudy BKN090 53 43     69%     30.06 30.07      
Sep 14 19:53 NNW 3 10 Cloudy OVC090 55 42     62%     30.06 30.07      
Sep 14 18:53 WNW 7 10 Clear CLR 61 38     42%     30.06 30.06      
Sep 14 17:53 WNW 11 10 Clear CLR 62        %     30.05 30.06      
Sep 14 16:53 WNW 15 10 Clear CLR 63 40     43%     30.06 30.06      
Sep 14 15:53 WNW 15 10 Clear CLR 62 42     48%     30.06 30.06      
Sep 14 14:53 WNW 17 10 Clear CLR 62 43     50%     30.07 30.07      
Sep 14 13:53 W 20 10 Clear and Windy CLR 60 44     55%     30.06 30.07      
Sep 14 12:53 W 18 10 Clear CLR 60 45     57%     30.04 30.05      
Sep 14 11:53 WNW 24 10 Clear and Windy CLR 58 46     65%     30.03 30.04      
Sep 14 10:53 W 22 10 Clear and Windy CLR 57 45     64%     30.02 30.03      
Sep 14 09:53 W 23 10 Clear and Windy CLR 55 44     66%     30 30.01      
Sep 14 08:53 WNW 21 10 Clear and Windy CLR 53 44     71%     29.98 29.98      
Sep 14 07:53 W 22 10 Cloudy and Windy OVC030 52 43     71%     29.95 29.96      
Sep 14 07:46   10 Cloudy OVC030 52 43     71%     29.95        
Sep 14 06:53 W 23 10 Cloudy and Windy SCT019 OVC027 52 45     77%     29.93 29.93      
Sep 14 06:37 W 21 10 Cloudy and Windy SCT018 BKN027 OVC032 52 45     77%     29.92        
Sep 14 05:53 WNW 22 10 Cloudy and Windy FEW017 FEW024 OVC032 52 46     80%     29.9 29.91      
Sep 14 05:24   10 Cloudy FEW020 BKN027 OVC034 53 45     74%     29.89        
Sep 14 04:53   10 Cloudy OVC030 53 45     74%     29.88 29.88      
Sep 14 04:31 W 22 10 Cloudy and Windy OVC030 53 45     74%     29.87        
Sep 14 04:14 W 20 10 Cloudy and Windy FEW022 OVC028 53 45     74%     29.86        
Sep 14 03:53 W 25 10 Cloudy and Windy BKN030 BKN034 OVC041 53 45     74%     29.86 29.86      
Sep 14 03:37 W 22 10 Cloudy and Windy BKN032 OVC039 53 46     77%     29.86        
Sep 14 02:53   10 Cloudy OVC026 53 46     77%     29.85 29.85      
Sep 14 01:53 W 22 10 Cloudy and Windy FEW015 SCT020 OVC026 53 47     80%     29.84 29.85     0
Sep 14 01:43   10 Cloudy SCT020 BKN028 OVC055 53 47     80%     29.84        
Sep 14 01:33   10 Mostly Cloudy SCT020 SCT028 BKN055 53 46     77%     29.84        
Sep 14 00:53   10 Cloudy SCT016 OVC024 53 47     80%     29.84 29.84      
Sep 13 23:53 W 21 10 Cloudy and Windy BKN015 BKN019 OVC043 53 47     80%     29.83 29.83 0    
Sep 13 23:23 W 21 6 Light Rain SCT013 BKN022 OVC029 53 48     83%     29.82   0    
Sep 13 22:53 W 17 10 Cloudy BKN013 BKN019 OVC024 53 49     86%     29.82 29.82 0 0  
Sep 13 22:43 W 21 10 Clear and Windy   54 49     83%     29.82   0    
Sep 13 21:53 W 17 10 Clear   55 49     80%     29.81 29.81      
May 15 13:53 ESE 11 10 Clear CLR 51 24     35%     30.12 30.13      
May 15 08:53 E 5 10 Clear CLR 45 23     42% 43   30.09 30.1      
May 14 20:53 NW 6 10 Clear CLR 67 41     39%     29.78 29.77      
Notice The following observation data may not be complete
May 14 18:53 WNW 10 10 Clear CLR   40      %     29.78 29.78      
Notice The following observation data may not be complete
May 14 07:53   10 Clear CLR          %              
May 14 02:53 W 14 10 Clear CLR 62 36     38%     29.82 29.81      
May 13 15:53   10 Cloudy OVC110 69 27     21%     29.88 29.88      
Notice The following observation data may not be complete
May 12 12:53   10 Clear CLR          %              
May 11 20:53 ESE 9 10 Clear CLR 39 21     48% 33   30.11 30.14      
Notice The following observation data may not be complete
Jun 12 07:53 WNW 14 10 Cloudy OVC004   59      %     29.81 29.81      
Notice The following observation data may not be complete
Jun 12 04:53   10 Clear CLR   59      %     29.77 29.76      
Jun 12 01:53 Calm 10 Cloudy OVC024 63 60     90%     29.75 29.75     0
Jun 11 22:53 WNW 6 10 Clear CLR 62 58     86%     29.72 29.71   0  
Jun 11 06:53 NW 7 10 Clear CLR 59 50     72%     29.76        
Jun 09 18:53 ESE 9 10 Clear CLR 63 36     37%     29.82 29.82      
Jun 08 13:53 ESE 5 10 Mostly Cloudy BKN120 70 57     63%     29.86 29.85 0   0
Notice The following observation data may not be complete
Jun 08 08:53 SW 3 10 Partly Cloudy SCT080   52      %     29.93 29.92      
Jun 08 03:53 Calm 10 Clear CLR 55 44     66%     29.94 29.93      
Jun 08 01:53 Calm 10 Clear CLR 54 43     66%     29.96 29.96      
Jun 07 22:53 Calm 10 Clear CLR 55 47     74%     29.99        
Jun 07 15:53   10 Clear CLR 77 44     31%   76 30.06 30.06      
Jun 06 06:53 NW 9 10 Clear CLR 51 39     63%     30.12 30.13